Date,TemperatureHighF,TemperatureAvgF,TemperatureLowF,DewpointHighF,DewpointAvgF,DewpointLowF,HumidityHigh,HumidityAvg,HumidityLow,PressureMaxIn,PressureMinIn,WindSpeedMaxMPH,WindSpeedAvgMPH,GustSpeedMaxMPH,PrecipitationSumIn
2013-3-1,42,37,32,35,29,25,96,74,55,29.64,29.49,13,2,16,0.00
2013-3-2,40,37,32,28,26,24,74,64,54,29.65,29.58,10,1,11,0.00
2013-3-3,41,35,31,29,26,24,89,69,54,29.61,29.52,8,1,8,0.00
2013-3-4,40,33,28,28,22,19,88,63,49,29.71,29.56,22,1,22,0.00
2013-3-5,44,36,31,31,26,21,89,66,51,30.03,29.71,14,2,14,0.00
2013-3-6,40,36,33,35,32,28,93,84,67,30.05,29.99,25,4,26,0.13
2013-3-7,36,31,29,31,30,28,97,94,78,29.99,29.93,28,7,28,0.20
2013-3-8,33,30,29,33,29,27,98,96,82,30.10,29.89,21,5,21,0.13
2013-3-9,42,35,29,29,25,20,91,68,52,30.32,30.10,15,2,16,0.12
2013-3-10,44,35,28,33,29,26,92,78,55,30.39,30.30,8,1,8,0.01
2013-3-11,50,41,35,40,36,31,92,81,65,30.31,30.13,10,1,10,0.00
2013-3-12,56,49,41,52,46,40,96,91,77,30.14,29.70,21,2,21,0.55
2013-3-13,51,43,32,50,31,19,96,64,31,29.76,29.67,13,1,14,0.00
2013-3-14,34,30,23,26,14,4,80,52,34,29.82,29.69,20,1,21,0.00
2013-3-15,40,30,21,27,12,1,75,49,21,29.86,29.62,13,1,16,0.00
2013-3-16,40,34,28,26,15,3,75,48,23,29.84,29.67,12,1,12,0.00
2013-3-17,38,31,24,20,10,0,70,45,23,30.28,29.84,16,1,18,0.00
2013-3-18,37,28,19,24,7,-3,80,42,25,30.43,30.20,10,1,11,0.00
2013-3-19,37,32,28,35,30,24,95,93,81,30.20,29.55,17,3,21,0.70
2013-3-20,38,32,26,27,19,15,91,62,39,29.80,29.67,16,1,17,0.13
2013-3-21,35,30,24,28,22,16,90,72,51,29.81,29.58,11,1,11,0.02
2013-3-22,40,33,27,26,18,13,85,54,35,29.74,29.59,12,1,12,0.00
2013-3-23,43,35,29,23,19,14,72,52,31,29.79,29.64,24,1,24,0.00
2013-3-24,47,38,30,26,21,18,73,52,33,29.82,29.70,16,1,16,0.00
2013-3-25,40,35,31,33,29,26,91,78,67,29.75,29.45,22,3,22,0.05
2013-3-26,47,39,34,31,25,19,86,59,33,29.75,29.47,16,2,18,0.01
2013-3-27,52,42,30,29,22,18,69,46,27,29.82,29.70,14,1,18,0.00
2013-3-28,47,41,36,34,31,27,88,68,48,29.98,29.82,16,2,19,0.00
2013-3-29,56,47,36,33,29,23,81,53,28,30.00,29.92,17,1,17,0.00
2013-3-30,56,45,37,31,25,11,73,48,17,30.05,29.96,13,1,20,0.00
2013-3-31,57,44,29,42,28,19,92,59,24,30.08,29.68,12,2,14,0.05